Location: Andrest
(43.3200°N, 0.0641°E)
Time: 04:55:42
(UTC+00:00)

SL-8 Rocket - Pass Details

Date: 22 April 2021
Orbit: 958 x 989 km, 82.9° (Epoch: 11 May)

Event Time Altitude Azimuth Distance (km) Brightness Sun altitude
Rises 00:45:17 0° 354° (N) 3,696 8.0 -33.4°
Reaches altitude 10° 00:47:51 10° 358° (N) 2,747 7.1 -33.3°
Enters shadow 00:53:36 62° 55° (NE) 1,109 4.3 -33.0°
